{"data":{"norad_id":59492,"intl_designator":"2024-071J","name":"STARLINK-31684","alt_names":[],"object_type":"PAYLOAD","status":"ACTIVE","operator":null,"country":"US","launch_date":"2024-04-13","launch_site_code":"AFETR","launch_vehicle":null,"mission":null,"orbit_class":"UNKNOWN","rcs_meters":null,"size_class":null,"mass_kg":null,"dimensions":null,"purposes":["comms"],"wikipedia_slug":null,"has_3d_model":false,"image_url":null,"decayed_at":null,"tle_current":{"epoch":"2026-05-24T20:08:08.525184Z","epoch_age_seconds":97810,"freshness":"FRESH","line1":"1 59492U 24071J   26144.83898756  .00006287  00000+0  23756-3 0  9992","line2":"2 59492  42.9973 277.3153 0001353 293.0959  66.9750 15.27612017119761","mean_motion":15.27612017,"eccentricity":0.0001353,"inclination_deg":42.9973,"raan_deg":277.3153,"arg_perigee_deg":293.0959,"mean_anomaly_deg":66.975,"bstar":0.00023756,"rev_number":11976,"period_min":94.264772990458,"perigee_km":482.02492179029,"apogee_km":483.8815328058,"semimajor_km":6861.090227298,"source":"CELESTRAK","updated_at":"2026-05-25T13:38:18.954156Z"}}}